[[{"header":{"parameterUnit":"m.s-1","parameterCategory":1,"la1":30.2991,"la2":30.254,"lo1":-89.0895,"lo2":-89.0444,"dy":0.0017,"dx":0.0017,"nx":28,"ny":28,"refTime":"2024-04-13T03:00:00:Z","depth":0,"parameterNumber":2,"parameterNumberName":"U-component_of_WINDS"},"data":[0,0,0,0,0,0,0,0,0,0,0,0,0,0,0,0,0,0,0,0,0,0,0,0,0,0,0,0,0,0,0,0,0,0,0,0,0,0,0,0,0,0,0,0,0,0,0,0,0,0,0,0,0,0,0,0,0,0,-0.0972,-0.0971,0,-0.0908,-0.0907,-0.0907,-0.0865,-0.0864,-0.0864,-0.0864,-0.0801,-0.08,-0.0798,0,0,0,0,0,0,0,0,0,0,0,0,0,-0.106,-0.1058,-0.0972,-0.0971,-0.097,-0.0908,-0.0907,-0.0907,-0.0865,-0.0864,-0.0864,-0.0864,-0.0801,-0.08,-0.0798,0,0,0,0,0,0,0,0,0,0,0,0,0,-0.1011,-0.1058,-0.0972,-0.0942,-0.0938,-0.0909,-0.0907,-0.0906,-0.0865,-0.0864,-0.0864,-0.0863,-0.0802,-0.08,-0.0798,-0.0794,0,0,-0.0792,-0.0791,0,0,0,0,0,0,0,0,-0.1014,-0.1008,-0.0947,-0.0944,-0.094,-0.0894,-0.0915,-0.0869,-0.0865,-0.0893,-0.0864,-0.0863,-0.0832,-0.0828,-0.0817,-0.0791,-0.0788,-0.0791,-0.079,-0.0789,-0.0789,0,0,0,0,0,0,0,-0.1018,-0.1011,-0.0947,-0.0946,-0.0942,-0.0932,-0.0925,-0.0906,-0.0866,-0.089,-0.0887,-0.088,-0.083,-0.0819,-0.0815,-0.0787,-0.0791,-0.079,-0.0788,-0.0787,-0.0757,-0.0757,0,0,0,0,0,0,-0.1025,-0.1014,-0.0949,-0.0945,-0.0977,-0.0931,-0.0923,-0.0909,-0.0866,-0.0859,-0.088,-0.0878,-0.0823,-0.0818,-0.0813,-0.0806,-0.0789,-0.0787,-0.0786,-0.0756,-0.0757,-0.0757,0,0,0,0,0,0,-0.1027,-0.102,-0.0951,-0.0978,-0.0969,-0.093,-0.0915,-0.0908,-0.0897,-0.0858,-0.0851,-0.0876,-0.0822,-0.0816,-0.0799,-0.0803,-0.0786,-0.0784,-0.0756,-0.0756,-0.0757,-0.0792,0,0,0,0,0,0,-0.103,-0.1021,-0.1018,-0.0979,-0.0968,-0.0938,-0.0915,-0.0907,-0.0893,-0.0889,-0.0852,-0.0846,-0.0821,-0.0802,-0.0797,-0.08,-0.0783,-0.0755,-0.0756,-0.0757,-0.079,-0.0794,-0.0797,0,0,0,0,0,-0.1033,-0.103,-0.1018,-0.101,-0.0963,-0.0938,-0.0932,-0.0903,-0.0893,-0.0891,-0.0867,-0.0847,-0.0804,-0.0801,-0.0795,-0.0797,-0.0755,-0.0756,-0.0757,-0.0789,-0.0793,-0.0797,0,0,0,0,0,0,-0.1072,-0.1025,-0.101,-0.0994,-0.097,-0.0931,-0.0926,-0.0908,-0.0887,-0.0884,-0.085,-0.0843,-0.083,-0.0812,-0.081,-0.0792,-0.0777,-0.0777,-0.0804,-0.0808,-0.0811,-0.0815,-0.0781,0,0,0,0,0,-0.1078,-0.1061,-0.1021,-0.1011,-0.1,-0.0965,-0.0953,-0.0933,-0.0907,-0.0897,-0.0872,-0.0848,-0.0829,-0.0817,-0.0798,-0.0788,-0.078,-0.0787,-0.079,-0.0793,-0.0793,-0.0788,-0.0791,-0.076,-0.076,-0.076,0,0,-0.1092,-0.1064,-0.1055,-0.1018,-0.0997,-0.0981,-0.0957,-0.094,-0.0929,-0.0895,-0.0877,-0.0858,-0.083,-0.0817,-0.081,-0.0802,-0.08,-0.0794,-0.0797,-0.0795,-0.0789,-0.0792,-0.0795,-0.0761,-0.0761,-0.0761,0,0,-0.1108,-0.1084,-0.1074,-0.1054,-0.1022,-0.1,-0.0998,-0.0961,-0.0947,-0.0929,-0.0904,-0.089,-0.0858,-0.0839,-0.0825,-0.0836,-0.0818,-0.0831,-0.0848,-0.0843,-0.0846,-0.0848,-0.0853,-0.0855,-0.0831,-0.0832,-0.0832,0,-0.1128,-0.1102,-0.1071,-0.1056,-0.1042,-0.101,-0.1,-0.0982,-0.0947,-0.0938,-0.0929,-0.0889,-0.0868,-0.0851,-0.0854,-0.0843,-0.0841,-0.0835,-0.0848,-0.0849,-0.0851,-0.0855,-0.0857,-0.0833,-0.0833,-0.0833,-0.0833,0,-0.113,-0.1112,-0.1108,-0.1073,-0.1058,-0.1046,-0.1015,-0.1003,-0.0985,-0.0965,-0.0948,-0.0921,-0.0896,-0.0891,-0.0873,-0.0872,-0.0868,-0.0854,-0.0838,-0.0856,-0.086,-0.0861,-0.0836,-0.0835,-0.0835,-0.0834,0,0,-0.1167,-0.1117,-0.1116,-0.1101,-0.1065,-0.1051,-0.1038,-0.1014,-0.1005,-0.0982,-0.0972,-0.0946,-0.0933,-0.0918,-0.0898,-0.0894,-0.0906,-0.0881,-0.088,-0.0887,-0.0905,-0.0916,-0.0918,-0.0894,-0.0895,-0.0895,-0.0908,0,-0.1178,-0.1152,-0.1125,-0.111,-0.1094,-0.1065,-0.1054,-0.1032,-0.1012,-0.0997,-0.0976,-0.0959,-0.0943,-0.0933,-0.0928,-0.0906,-0.091,-0.0905,-0.0885,-0.0885,-0.0893,-0.092,-0.0931,-0.0944,-0.0909,-0.0909,-0.0909,0,-0.1187,-0.1165,-0.1148,-0.1115,-0.1107,-0.1098,-0.1074,-0.1059,-0.1034,-0.1021,-0.1004,-0.0983,-0.097,-0.0957,-0.0939,-0.0937,-0.0927,-0.0916,-0.0915,-0.0912,-0.0898,-0.0918,-0.0948,-0.095,-0.0911,-0.0911,-0.0911,0,-0.1217,-0.1184,-0.1169,-0.1157,-0.1118,-0.1112,-0.1096,-0.107,-0.1057,-0.1037,-0.1029,-0.1008,-0.0996,-0.0981,-0.0956,-0.0948,-0.0941,-0.0925,-0.093,-0.0931,-0.093,-0.093,-0.0959,-0.0924,-0.0924,-0.0924,-0.0924,0,-0.1232,-0.1223,-0.1182,-0.1173,-0.1163,-0.1133,-0.1124,-0.1105,-0.1083,-0.1071,-0.1045,-0.1035,-0.1001,-0.0988,-0.0968,-0.0957,-0.0952,-0.0942,-0.0937,-0.0944,-0.0946,-0.0938,-0.0936,-0.0924,-0.0924,-0.0924,-0.0924,0,-0.1264,-0.1236,-0.1218,-0.1183,-0.1174,-0.1168,-0.1138,-0.1129,-0.1109,-0.1095,-0.109,-0.1058,-0.1041,-0.1014,-0.0989,-0.0976,-0.0969,-0.096,-0.0977,-0.0974,-0.0981,-0.0981,-0.1006,-0.1008,-0.0971,-0.0971,-0.0972,0,-0.1275,-0.1268,-0.1232,-0.1221,-0.1206,-0.119,-0.1177,-0.1148,-0.1136,-0.1107,-0.1103,-0.1083,-0.1066,-0.104,-0.1016,-0.0997,-0.0988,-0.0998,-0.0985,-0.0994,-0.0989,-0.099,-0.099,-0.1001,-0.1002,-0.1002,-0.1003,0,-0.13,-0.1286,-0.1268,-0.1246,-0.1232,-0.1213,-0.1193,-0.1186,-0.1153,-0.1141,-0.1123,-0.111,-0.1085,-0.1067,-0.1045,-0.1029,-0.1011,-0.1007,-0.1007,-0.1015,-0.1026,-0.1021,-0.0986,-0.1007,-0.1006,-0.1006,-0.1006,-0.1006,-0.1322,-0.1314,-0.1288,-0.1269,-0.1251,-0.1233,-0.1224,-0.1203,-0.1187,-0.1163,-0.1147,-0.1131,-0.1107,-0.1076,-0.1062,-0.1049,-0.1041,-0.1041,-0.1042,-0.1042,-0.1046,-0.1028,-0.1045,-0.1045,-0.1045,-0.1045,-0.1045,0,-0.1345,-0.1327,-0.131,-0.1283,-0.1269,-0.1253,-0.123,-0.122,-0.1205,-0.1185,-0.1169,-0.1149,-0.1132,-0.1106,-0.1087,-0.1082,-0.1074,-0.1079,-0.1079,-0.1076,-0.1053,-0.1055,-0.1086,-0.1086,-0.1086,-0.1086,-0.1086,-0.1086,-0.1356,-0.1343,-0.1327,-0.1305,-0.1287,-0.1269,-0.1258,-0.1243,-0.1226,-0.1205,-0.119,-0.1174,-0.1152,-0.1131,-0.1115,-0.1109,-0.1103,-0.1111,-0.1102,-0.1081,-0.1077,-0.1074,-0.1075,-0.111,-0.111,-0.1125,-0.1125,-0.1126]},{"header":{"parameterUnit":"m.s-1","parameterCategory":1,"la1":30.2991,"la2":30.254,"lo1":-89.0895,"lo2":-89.0444,"dy":0.0017,"dx":0.0017,"nx":28,"ny":28,"refTime":"2024-04-13T03:00:00:Z","depth":0,"parameterNumber":3,"parameterNumberName":"V-component_of_WINDS"},"data":[0,0,0,0,0,0,0,0,0,0,0,0,0,0,0,0,0,0,0,0,0,0,0,0,0,0,0,0,0,0,0,0,0,0,0,0,0,0,0,0,0,0,0,0,0,0,0,0,0,0,0,0,0,0,0,0,0,0,4.3744,4.3744,0,4.3756,4.3756,4.3757,4.3768,4.3768,4.3768,4.3768,4.3778,4.3778,4.3779,0,0,0,0,0,0,0,0,0,0,0,0,0,4.3727,4.3727,4.3744,4.3744,4.3744,4.3756,4.3756,4.3757,4.3768,4.3768,4.3768,4.3769,4.3778,4.3778,4.3779,0,0,0,0,0,0,0,0,0,0,0,0,0,4.3736,4.3727,4.3744,4.3751,4.3752,4.3756,4.3756,4.3757,4.3768,4.3768,4.3768,4.3769,4.3778,4.3778,4.3779,4.3776,0,0,4.3779,4.3779,0,0,0,0,0,0,0,0,4.3736,4.3737,4.375,4.3751,4.3752,4.3761,4.3754,4.3763,4.3768,4.3762,4.3768,4.3769,4.3772,4.3773,4.3775,4.3776,4.3776,4.3779,4.3779,4.3779,4.378,0,0,0,0,0,0,0,4.3735,4.3736,4.3749,4.375,4.3751,4.3753,4.3755,4.3756,4.3765,4.3762,4.3763,4.3765,4.3773,4.3774,4.3775,4.3777,4.3779,4.3779,4.378,4.378,4.3777,4.3777,0,0,0,0,0,0,4.3734,4.3736,4.3748,4.3749,4.3744,4.3753,4.3755,4.3758,4.3766,4.3767,4.3765,4.3765,4.3774,4.3775,4.3775,4.3773,4.3779,4.378,4.378,4.3777,4.3777,4.3777,0,0,0,0,0,0,4.3733,4.3735,4.3748,4.3743,4.3744,4.3753,4.3756,4.3758,4.376,4.3767,4.3769,4.3765,4.3774,4.3775,4.3776,4.3774,4.378,4.378,4.3778,4.3777,4.3777,4.3768,0,0,0,0,0,0,4.3733,4.3734,4.3734,4.3743,4.3745,4.3748,4.3756,4.3758,4.376,4.3761,4.3768,4.3769,4.3774,4.3776,4.3776,4.3774,4.378,4.3778,4.3777,4.3777,4.3768,4.3767,4.3766,0,0,0,0,0,4.3732,4.373,4.3734,4.3735,4.3744,4.3748,4.3749,4.3756,4.376,4.3759,4.3764,4.3769,4.3774,4.3776,4.3776,4.3774,4.3778,4.3778,4.3777,4.3769,4.3768,4.3766,0,0,0,0,0,0,4.3719,4.3731,4.3735,4.3736,4.3741,4.375,4.3749,4.3755,4.3758,4.3759,4.3766,4.3768,4.3768,4.3771,4.3773,4.3772,4.3777,4.3776,4.377,4.3769,4.3768,4.3767,4.378,0,0,0,0,0,4.3716,4.3719,4.3729,4.3729,4.3731,4.374,4.3742,4.3747,4.3752,4.3754,4.3759,4.3764,4.3766,4.3768,4.377,4.3769,4.3771,4.3768,4.3767,4.3766,4.3766,4.3766,4.3765,4.3776,4.3776,4.3776,0,0,4.371,4.3717,4.3718,4.3726,4.3731,4.3734,4.3742,4.3744,4.3746,4.3754,4.3756,4.376,4.3765,4.3765,4.3765,4.3768,4.3763,4.3766,4.3765,4.3765,4.3766,4.3765,4.3764,4.3775,4.3775,4.3775,0,0,4.3701,4.3706,4.3707,4.3712,4.372,4.3726,4.3726,4.3735,4.3738,4.374,4.3747,4.3749,4.3753,4.3757,4.376,4.3754,4.3758,4.3754,4.3749,4.3749,4.3748,4.3747,4.3746,4.3745,4.3754,4.3754,4.3754,0,4.3692,4.3697,4.3706,4.3709,4.3712,4.3722,4.3723,4.3727,4.3734,4.3736,4.3739,4.3746,4.375,4.3751,4.375,4.3751,4.3752,4.3753,4.3748,4.3747,4.3746,4.3745,4.3744,4.3753,4.3753,4.3753,4.3753,0,4.3687,4.369,4.369,4.3699,4.3702,4.3703,4.3712,4.3715,4.372,4.3725,4.3728,4.3733,4.3738,4.3739,4.3743,4.3741,4.3742,4.3746,4.3751,4.3745,4.3744,4.3743,4.3752,4.3753,4.3753,4.3753,0,0,4.3668,4.3684,4.3683,4.3688,4.3698,4.37,4.3702,4.3708,4.371,4.3715,4.3717,4.3721,4.3726,4.3728,4.3733,4.3734,4.3729,4.3738,4.3738,4.3736,4.3728,4.3725,4.3724,4.3733,4.3733,4.3732,4.3728,0,4.366,4.3666,4.3675,4.3677,4.3681,4.3691,4.3693,4.3699,4.3704,4.3708,4.3713,4.3716,4.3721,4.3723,4.3724,4.373,4.3728,4.373,4.3734,4.3734,4.3733,4.3724,4.372,4.3716,4.3727,4.3727,4.3727,0,4.3652,4.3659,4.3662,4.3673,4.3675,4.3676,4.3683,4.3686,4.3693,4.3697,4.3702,4.3708,4.371,4.3715,4.3718,4.372,4.3722,4.3725,4.3725,4.3725,4.373,4.3724,4.3714,4.3714,4.3726,4.3726,4.3726,0,4.3639,4.3648,4.3652,4.3655,4.3668,4.3669,4.3674,4.3682,4.3685,4.3691,4.3693,4.3698,4.3701,4.3705,4.3712,4.3715,4.3715,4.372,4.3718,4.3718,4.3718,4.3717,4.3708,4.3719,4.3719,4.3719,4.3719,0,4.363,4.3631,4.3646,4.3648,4.3651,4.3661,4.3663,4.3668,4.3675,4.3678,4.3687,4.3689,4.3699,4.3702,4.3708,4.371,4.3711,4.3714,4.3716,4.3714,4.3713,4.3715,4.3716,4.3719,4.3719,4.3719,4.3719,0,4.3615,4.3625,4.363,4.3642,4.3646,4.3647,4.3657,4.3659,4.3666,4.367,4.3671,4.3681,4.3686,4.3694,4.37,4.3704,4.3705,4.3708,4.3703,4.3704,4.3702,4.3703,4.3694,4.3693,4.3704,4.3704,4.3704,0,4.3609,4.3611,4.3624,4.3627,4.3633,4.3638,4.3642,4.3652,4.3656,4.3665,4.3666,4.3672,4.3677,4.3684,4.3691,4.3697,4.3699,4.3696,4.37,4.3698,4.37,4.37,4.37,4.3695,4.3695,4.3695,4.3694,0,4.3596,4.3602,4.3608,4.3616,4.3621,4.3628,4.3635,4.3637,4.3648,4.3652,4.3658,4.3662,4.367,4.3676,4.3682,4.3687,4.3692,4.3693,4.3693,4.3691,4.3689,4.369,4.3701,4.3693,4.3693,4.3693,4.3694,4.3694,4.3586,4.3588,4.3599,4.3605,4.3612,4.3619,4.3622,4.363,4.3635,4.3643,4.3649,4.3655,4.3662,4.3672,4.3677,4.3681,4.3683,4.3683,4.3683,4.3683,4.3682,4.3688,4.3682,4.3682,4.3682,4.3682,4.3682,0,4.3574,4.3582,4.3588,4.3598,4.3604,4.3611,4.3619,4.3623,4.3628,4.3635,4.3641,4.3648,4.3654,4.3662,4.3669,4.367,4.3673,4.3672,4.3672,4.3673,4.3679,4.3679,4.3669,4.3669,4.3669,4.3669,4.3669,4.3669,4.3569,4.3574,4.3581,4.3589,4.3596,4.3603,4.3607,4.3613,4.362,4.3628,4.3633,4.3639,4.3647,4.3655,4.366,4.3662,4.3664,4.3662,4.3665,4.3671,4.3672,4.3673,4.3673,4.3662,4.3662,4.3659,4.3658,4.3658]}]]